Cosmos 1455 - Orbit

View from above orbital plane
View from above orbital plane
View from above satellite
View from above satellite

Ground track
Ground track

The orbit data is extracted from the following two-line orbital elements,

1 14032U 83037A   13145.50858832  .00003588  00000-0  23081-3 0  2718
2 14032 082.4931 104.5887 0014192 026.3093 114.1871 15.08024239636970
Epoch (UTC): 25 May 2013 12:12:22
Eccentricity: 0.0014192
inclination: 82.4931°
perigee height: 532 km
apogee height: 552 km
right ascension of ascending node: 104.5887°
argument of perigee: 26.3093°
revolutions per day: 15.08024239
mean anomaly at epoch: 114.1871°
orbit number at epoch: 63697

The dashed part of the orbit path shows where the satellite is in the earth's shadow,  

Developed and maintained by Chris Peat, Heavens-Above GmbH. Please read the updated FAQ before sending e-mail. Imprint. DLR